Retour au catalogue

SL-8 R/B

ActifLEO
NORAD 7434·ROCKET BODY·🇷🇺 Russia

Lancé Sep 11, 1974 depuis Plesetsk Cosmodrome

Loading…

Prochains Passages (prochaines 24 heures)

TLE

FraisSource: Space-Track

Époque: Sep 14, 2026, 14:43 UTC

1 07434U 74071B   26257.61357470  .00000160  00000-0  61120-4 0  9993
2 07434  74.0451 128.4258 0021310 283.5198  76.3582 14.38266057721434

Suivez SL-8 R/B en temps réel avec AllMySat

Download on the App Store